Tracking 28790 objects as of 19-Apr-2024
HD Live streaming from Space Station
objects crossing your sky now

LEASAT 2 PKM

Track LEASAT 2 PKM now!
10-day predictions


NORAD ID: 15244
Int'l Code: 1984-093E
Perigee: 183.7 km
Apogee: 4,471.2 km
Inclination: 27.2 °
Period: 134.6 minutes
Semi major axis: 8698 km
RCS: 3.2367 m2 (large)
Launch date: August 30, 1984
Source: United States (US)
Launch site: AIR FORCE EASTERN TEST RANGE (AFETR)

Note: This is a ROCKET BODY
Your satellite tracking list
Your tracking list is empty




NASA's NSSDC Master Catalog

Two Line Element Set (TLE):
1 15244U 84093E   24109.74247495  .00507613 -20433-5  14618-2 0  9990
2 15244  27.2061 248.5509 2464549 185.6194 171.0711 10.70135727874085
Source of the keplerian elements: AFSPC